157  
ASUS41 KALY 150110  
RWRALY  
 
NEW YORK STATE HOURLY WEATHER ROUNDUP  
NATIONAL WEATHER SERVICE ALBANY NY  
900 PM EDT FRI JUN 14 2024  
 
NOTE: "FAIR" INDICATES FEW OR NO CLOUDS BELOW 12,000 FEET WITH NO  
SIGNIFICANT WEATHER AND/OR NO S TO VISIBILITY
.  
 
NYZ032-033-038>043-046>054-057>066-NYZ062>081-082-084-150200-  
EAST  
 
 
CITY SKY/WX TMP DP RH WIND PRES REMARKS
 
ALBANY CLOUDY 73 53 49 NW9 29.84R  
GLENS FALLS MOCLDY 70 58 65 N6 29.84R  
POUGHKEEPSIE CLOUDY 66 63 90 S5 29.82R  
NEWBURGH CLOUDY 64 63 94 W6 29.84R  
MONTGOMERY CLOUDY 63 61 93 CALM 29.84R  
WHITE PLAINS DRIZZLE 67 64 90 SE8 29.87R FOG  
ISLIP TSTM 66 64 93 N5 29.89R FOG  
NEW YORK CITY LGT RAIN 70 61 73 E9 29.86R  
CENTRAL PARK CLOUDY 66 66 100 VRB5 29.90R  

 
 
NYZ005>009-017-018-044>046-055-056-150200-  
CENTRAL  
 
 
CITY SKY/WX TMP DP RH WIND PRES REMARKS
 
FULTON CLEAR 63 53 70 NW5 29.93R  
SYRACUSE PTCLDY 68 54 60 NW10 29.93R  
ROME CLEAR 68 55 63 W10 29.91R  
ELMIRA PTCLDY 70 52 52 E7 29.92R  
BINGHAMTON CLOUDY 68 50 52 N14 29.93R  

 
 
NYZ026>034-041>043-087-150200-  
NORTH  
 
 
CITY SKY/WX TMP DP RH WIND PRES REMARKS
 
WATERTOWN MOCLDY 67 59 75 CALM 29.92R  
FORT DRUM PTCLDY 62 60 92 CALM 29.90R  
OGDENSBURG CLEAR 64 50 59 CALM 29.91R  
MASSENA MOCLDY 65 50 58 NW6 29.93R  
SARANAC LAKE CLOUDY 58 52 80 CALM 29.93R  
PLATTSBURGH CLOUDY 69 52 54 NW7 29.88R  

 
 
NYZ001>004-010>016-019>021-085-150200-  
WEST  
 
 
CITY SKY/WX TMP DP RH WIND PRES REMARKS
 
NIAGARA FALLS CLEAR 70 50 49 N6 29.96R  
BUFFALO PTCLDY 68 51 54 N5 29.96R  
DUNKIRK CLEAR 69 58 67 CALM 29.96R  
JAMESTOWN CLEAR 65 52 62 W9 30.00R  
WELLSVILLE PTCLDY 65 51 60 NW8 30.00R  
ROCHESTER PTCLDY 70 51 51 NW6 29.95R  
PENN YAN CLEAR 67 51 56 NE3 29.95R  

 
 
KEY  
WCI = WIND CHILL INDEX  
VSB = VISIBILITY  
HX = HEAT INDEX  

 
 
 
CLICK HERE TO GO TO PREVIOUS BULLETINS.

The Nexlab NY Page
The Nexlab VT Page
The Nexlab MA Page
The Nexlab CT Page Main Text Page